Details From KSEA - Seattle Tacoma Intl
To KNOW - Port Angeles Cgas
Flight Number -
Tags Generated
Created
Modified
Stats Distance 60 nm / 112 km
Max Altitude 0 ft / 0 m
Waypoints 2
Social Downloads 2
Likes 0
Share VATSIM

Download

Looking for another format? Having issues loading an existing format? Contact us
Advertisement - Login to hide

Notes

Generated

Route

KSEA KNOW

ID Type Via Altitude Latitude Longitude Leg Dist Tot Dist Heading (true) Name
O KSEA APT - 0 ft / 0 m 47.46383˚ -122.31786˚ - 0 nm - -
O KNOW APT - 0 ft / 0 m 48.14167˚ -123.42315˚ 60 nm 60 nm 313° / 312° -

Altitude Profile

Advertisement - Login to hide

KSEA

Details ICAO KSEA (SEA)
Name Seattle Tacoma Intl
Region United States
Timezone America/Los_Angeles (UTC-8.0)
Stats Elevation 433 ft / 132 m (AMSL)
Location 47.450188° -122.312320°
Runways 3
Magnetic Variation 15.686° E

METAR

KSEA 102353Z 34005KT 10SM FEW210 07/01 A3034 RMK AO2 SLP285 T00720006 10094 20050 56012 $

Decode

TAF

KSEA 102329Z 1100/1206 02005KT P6SM SKC FM110900 04004KT P6SM VCFG SKC TEMPO 1110/1112 3SM BCFG FM111200 04004KT 3SM BCFG FEW001 TEMPO 1114/1118 1/4SM FG VV001 FM112000 VRB04KT P6SM SCT250 FM120000 15004KT P6SM FEW120 BKN250

Decode

Departure Runways

ID Width Length Bearing (true) Bearing (mag) Surface Threshold Offset Overrun Length
16C 151 ft / 46 m 9,429 ft / 2,874 m 180.34° 164.65° Concrete 0 ft / 0 m 223 ft / 68 m
16L 151 ft / 46 m 11,904 ft / 3,628 m 180.34° 164.65° Concrete 0 ft / 0 m 151 ft / 46 m
16R 151 ft / 46 m 8,503 ft / 2,592 m 180.34° 164.65° Concrete 0 ft / 0 m 164 ft / 50 m
34C 151 ft / 46 m 9,429 ft / 2,874 m 0.34° 344.65° Concrete 0 ft / 0 m 394 ft / 120 m
34L 151 ft / 46 m 8,503 ft / 2,592 m 0.34° 344.65° Concrete 0 ft / 0 m 394 ft / 120 m
34R 151 ft / 46 m 11,904 ft / 3,628 m 0.34° 344.65° Concrete 0 ft / 0 m 400 ft / 122 m

KNOW

Details ICAO KNOW (NOW)
Name PORT ANGELES CGAS
Region United States
Timezone Unknown (UTC+0.0)
Stats Elevation 13 ft / 4 m (AMSL)
Location 48.141293° -123.413955°
Runways 1
Magnetic Variation 16.046° E

METAR

KNOW 110015Z AUTO 08005KT 10SM CLR 07/04 A3038 RMK AO2 T00690041

Decode

TAF

Not found

Destination Runways

ID Width Length Bearing (true) Bearing (mag) Surface Threshold Offset Overrun Length
07 151 ft / 46 m 4,488 ft / 1,368 m 93.55° 77.50° Asphalt 0 ft / 0 m 0 ft / 0 m
25 151 ft / 46 m 4,488 ft / 1,368 m 273.57° 257.52° Asphalt 0 ft / 0 m 0 ft / 0 m

Popular Alternatives